TimeMDT,TemperatureF,Dew PointF,Humidity,Sea Level PressureIn,VisibilityMPH,Wind Direction,Wind SpeedMPH,Gust SpeedMPH,PrecipitationIn,Events,Conditions,WindDirDegrees,DateUTC
12:15 AM,59.0,10.4,15,29.87,10.0,SW,8.1,16.1,N/A,,Clear,230,2014-05-07 06:15:00
12:35 AM,55.4,8.6,15,29.88,10.0,WNW,6.9,-,N/A,,Clear,290,2014-05-07 06:35:00
12:55 AM,57.2,10.4,16,29.88,10.0,SW,4.6,-,N/A,,Clear,230,2014-05-07 06:55:00
1:15 AM,55.4,10.4,17,29.88,10.0,Calm,Calm,-,N/A,,Clear,0,2014-05-07 07:15:00
1:35 AM,55.4,10.4,17,29.87,10.0,NW,3.5,-,N/A,,Clear,320,2014-05-07 07:35:00
1:55 AM,53.6,8.6,16,29.87,10.0,NNW,3.5,-,N/A,,Clear,340,2014-05-07 07:55:00
2:15 AM,48.2,6.8,19,29.87,10.0,Calm,Calm,-,N/A,,Clear,0,2014-05-07 08:15:00
2:35 AM,44.6,5.0,20,29.86,10.0,Calm,Calm,-,N/A,,Clear,0,2014-05-07 08:35:00
2:55 AM,42.8,5.0,21,29.86,10.0,Calm,Calm,-,N/A,,Clear,0,2014-05-07 08:55:00
3:15 AM,46.4,6.8,20,29.86,10.0,East,6.9,-,N/A,,Clear,90,2014-05-07 09:15:00
3:35 AM,48.2,8.6,20,29.86,10.0,East,3.5,-,N/A,,Clear,100,2014-05-07 09:35:00
3:55 AM,50.0,8.6,19,29.86,10.0,East,4.6,-,N/A,,Clear,100,2014-05-07 09:55:00
4:15 AM,48.2,8.6,20,29.87,10.0,Calm,Calm,-,N/A,,Clear,0,2014-05-07 10:15:00
4:35 AM,51.8,8.6,18,29.87,10.0,Calm,Calm,-,N/A,,Clear,0,2014-05-07 10:35:00
4:55 AM,48.2,8.6,20,29.87,10.0,NNW,3.5,-,N/A,,Clear,340,2014-05-07 10:55:00
5:15 AM,46.4,8.6,22,29.87,10.0,Calm,Calm,-,N/A,,Clear,0,2014-05-07 11:15:00
5:35 AM,46.4,8.6,22,29.87,10.0,WNW,4.6,-,N/A,,Clear,300,2014-05-07 11:35:00
5:55 AM,51.8,10.4,19,29.87,10.0,Calm,Calm,-,N/A,,Clear,0,2014-05-07 11:55:00
6:15 AM,51.8,10.4,19,29.88,10.0,WSW,5.8,-,N/A,,Clear,240,2014-05-07 12:15:00
6:35 AM,48.2,10.4,22,29.88,10.0,SSW,6.9,-,N/A,,Clear,210,2014-05-07 12:35:00
6:55 AM,48.2,10.4,22,29.88,10.0,South,8.1,-,N/A,,Clear,190,2014-05-07 12:55:00
7:15 AM,50.0,10.4,20,29.89,10.0,SSW,5.8,-,N/A,,Clear,200,2014-05-07 13:15:00
7:35 AM,53.6,10.4,18,29.89,10.0,SSW,8.1,-,N/A,,Clear,200,2014-05-07 13:35:00
7:55 AM,55.4,10.4,17,29.89,10.0,SSW,6.9,-,N/A,,Clear,200,2014-05-07 13:55:00
8:15 AM,55.4,12.2,18,29.89,10.0,SSW,3.5,-,N/A,,Clear,210,2014-05-07 14:15:00
8:35 AM,57.2,15.8,20,29.88,10.0,SSW,23.0,28.8,N/A,,Clear,210,2014-05-07 14:35:00
8:55 AM,59.0,19.4,22,29.89,10.0,SW,25.3,33.4,N/A,,Clear,220,2014-05-07 14:55:00
9:15 AM,59.0,23.0,25,29.89,10.0,SW,27.6,40.3,N/A,,Clear,220,2014-05-07 15:15:00
9:55 AM,62.6,23.0,22,29.89,10.0,SSW,28.8,39.1,N/A,,Clear,200,2014-05-07 15:55:00
10:15 AM,62.6,23.0,22,29.90,10.0,SSW,25.3,40.3,N/A,,Clear,210,2014-05-07 16:15:00
10:35 AM,62.6,21.2,20,29.90,10.0,SW,32.2,41.4,N/A,,Clear,220,2014-05-07 16:35:00
10:55 AM,64.4,21.2,19,29.90,10.0,SW,33.4,43.7,N/A,,Clear,220,2014-05-07 16:55:00
11:15 AM,64.4,19.4,18,29.90,10.0,SSW,33.4,43.7,N/A,,Clear,210,2014-05-07 17:15:00
11:35 AM,64.4,17.6,16,29.90,10.0,WSW,24.2,39.1,N/A,,Clear,240,2014-05-07 17:35:00
11:55 AM,64.4,17.6,16,29.90,9.0,WSW,25.3,44.9,N/A,,Clear,250,2014-05-07 17:55:00
12:15 PM,66.2,17.6,15,29.89,10.0,WSW,28.8,40.3,N/A,,Clear,240,2014-05-07 18:15:00
12:35 PM,66.2,14.0,13,29.89,7.0,SW,35.7,43.7,N/A,,Clear,220,2014-05-07 18:35:00
12:55 PM,66.2,12.2,12,29.88,8.0,SW,31.1,41.4,N/A,,Clear,230,2014-05-07 18:55:00
1:15 PM,68.0,12.2,12,29.87,9.0,SW,32.2,43.7,N/A,,Clear,220,2014-05-07 19:15:00
1:35 PM,68.0,14.0,12,29.87,10.0,SW,31.1,42.6,N/A,,Clear,220,2014-05-07 19:35:00
1:55 PM,68.0,12.2,12,29.87,10.0,WSW,32.2,43.7,N/A,,Partly Cloudy,250,2014-05-07 19:55:00
2:15 PM,68.0,10.4,11,29.87,10.0,WSW,21.9,34.5,N/A,,Partly Cloudy,250,2014-05-07 20:15:00
2:35 PM,66.2,8.6,11,29.88,10.0,WSW,17.3,41.4,N/A,,Partly Cloudy,240,2014-05-07 20:35:00
2:55 PM,68.0,10.4,11,29.87,6.0,West,25.3,38.0,N/A,,Haze,260,2014-05-07 20:55:00
3:15 PM,66.2,10.4,11,29.87,9.0,West,28.8,38.0,N/A,,Clear,270,2014-05-07 21:15:00
3:35 PM,66.2,12.2,12,29.88,10.0,WSW,21.9,40.3,N/A,,Clear,240,2014-05-07 21:35:00
3:55 PM,66.2,15.8,14,29.87,10.0,West,26.5,43.7,N/A,,Clear,260,2014-05-07 21:55:00
4:15 PM,66.2,19.4,17,29.88,10.0,West,21.9,40.3,N/A,,Clear,280,2014-05-07 22:15:00
4:35 PM,66.2,17.6,15,29.88,10.0,West,19.6,35.7,N/A,,Clear,260,2014-05-07 22:35:00
4:55 PM,66.2,15.8,14,29.88,10.0,West,26.5,44.9,N/A,,Clear,270,2014-05-07 22:55:00
5:15 PM,64.4,15.8,15,29.88,10.0,West,35.7,46.0,N/A,,Clear,280,2014-05-07 23:15:00
5:35 PM,64.4,14.0,14,29.89,10.0,West,20.7,40.3,N/A,,Clear,270,2014-05-07 23:35:00
5:55 PM,64.4,12.2,13,29.89,10.0,West,27.6,46.0,N/A,,Clear,280,2014-05-07 23:55:00
6:15 PM,64.4,12.2,13,29.89,10.0,West,24.2,38.0,N/A,,Clear,270,2014-05-08 00:15:00
6:35 PM,62.6,14.0,15,29.90,10.0,West,23.0,31.1,N/A,,Clear,280,2014-05-08 00:35:00
6:55 PM,62.6,14.0,15,29.90,10.0,West,24.2,34.5,N/A,,Clear,270,2014-05-08 00:55:00
7:15 PM,60.8,15.8,17,29.91,10.0,West,21.9,33.4,N/A,,Clear,280,2014-05-08 01:15:00
7:35 PM,59.0,17.6,20,29.91,10.0,West,24.2,32.2,N/A,,Clear,280,2014-05-08 01:35:00
7:55 PM,59.0,17.6,20,29.92,10.0,WNW,18.4,-,N/A,,Clear,290,2014-05-08 01:55:00
8:15 PM,57.2,17.6,21,29.93,10.0,WNW,12.7,-,N/A,,Clear,290,2014-05-08 02:15:00
8:35 PM,57.2,17.6,21,29.93,10.0,WNW,16.1,21.9,N/A,,Clear,300,2014-05-08 02:35:00
8:55 PM,55.4,17.6,23,29.94,10.0,NW,11.5,-,N/A,,Clear,310,2014-05-08 02:55:00
9:15 PM,53.6,17.6,24,29.95,10.0,NW,10.4,-,N/A,,Clear,320,2014-05-08 03:15:00
9:35 PM,51.8,17.6,26,29.95,10.0,NNW,10.4,-,N/A,,Clear,330,2014-05-08 03:35:00
9:55 PM,50.0,17.6,28,29.95,10.0,NW,11.5,-,N/A,,Clear,320,2014-05-08 03:55:00
10:15 PM,48.2,17.6,30,29.96,10.0,NW,8.1,-,N/A,,Clear,320,2014-05-08 04:15:00
10:35 PM,50.0,17.6,28,29.96,10.0,NNW,11.5,-,N/A,,Clear,330,2014-05-08 04:35:00
10:55 PM,50.0,17.6,28,29.97,10.0,NW,16.1,-,N/A,,Clear,320,2014-05-08 04:55:00
11:15 PM,50.0,17.6,28,29.96,10.0,NW,16.1,-,N/A,,Clear,320,2014-05-08 05:15:00
11:35 PM,48.2,17.6,30,29.96,10.0,NW,16.1,-,N/A,,Clear,310,2014-05-08 05:35:00
11:55 PM,48.2,15.8,27,29.96,10.0,NNW,13.8,-,N/A,,Clear,330,2014-05-08 05:55:00